This is the latest recevied weather packets stored in our database for station/object OZ1IEP-5. If no packets are shown the sender has not sent any weather packets the latest 10 day(s).
| Time | Temp. | Humidity | Pressure | Rain* | Wind** | Luminosity | Snow |
|---|---|---|---|---|---|---|---|
| 1778095205 | 8.33° C | 70% | 1010.9 hPa | 0 mm | - | 0 W/m² | - |
| 1778094606 | 8.89° C | 68% | 1010.8 hPa | 0 mm | - | 0 W/m² | - |
| 1778094017 | 8.89° C | 66% | 1010.7 hPa | 0 mm | - | 0 W/m² | - |
| 1778093405 | 9.44° C | 64% | 1010.5 hPa | 0 mm | - | 9 W/m² | - |
| 1778092806 | 10° C | 63% | 1010.4 hPa | 0 mm | - | 16 W/m² | - |
| 1778092208 | 10° C | 61% | 1010.3 hPa | 0 mm | - | 23 W/m² | - |
| 1778091605 | 10.56° C | 59% | 1010.2 hPa | 0 mm | - | 32 W/m² | - |
| 1778091005 | 10.56° C | 58% | 1010 hPa | 0 mm | - | 37 W/m² | - |
| 1778090407 | 11.11° C | 56% | 1009.9 hPa | 0 mm | - | 51 W/m² | - |
| 1778089805 | 11.11° C | 55% | 1009.9 hPa | 0 mm | - | 65 W/m² | - |
| 1778089206 | 11.11° C | 54% | 1009.9 hPa | 0 mm | - | 120 W/m² | - |
| 1778088608 | 11.67° C | 53% | 1009.8 hPa | 0 mm | - | 58 W/m² | - |
| 1778088006 | 11.67° C | 53% | 1009.8 hPa | 0 mm | - | 81 W/m² | - |
| 1778087406 | 11.67° C | 51% | 1009.6 hPa | 0 mm | - | 81 W/m² | - |
| 1778086808 | 11.67° C | 51% | 1009.6 hPa | 0 mm | - | 121 W/m² | - |
| 1778086206 | 11.67° C | 51% | 1009.6 hPa | 0 mm | - | 97 W/m² | - |
| 1778085606 | 11.67° C | 51% | 1009.7 hPa | 0 mm | - | 116 W/m² | - |
| 1778085009 | 11.67° C | 52% | 1009.5 hPa | 0 mm | - | 91 W/m² | - |
| 1778084405 | 11.67° C | 51% | 1009.4 hPa | 0 mm | - | 72 W/m² | - |
| 1778083805 | 11.67° C | 52% | 1009.4 hPa | 0 mm | - | 60 W/m² | - |
| 1778083208 | 11.67° C | 51% | 1009.4 hPa | 0 mm | - | 51 W/m² | - |
| 1778082606 | 11.67° C | 52% | 1009.4 hPa | 0 mm | - | 44 W/m² | - |
| 1778082006 | 11.67° C | 52% | 1009.4 hPa | 0 mm | - | 40 W/m² | - |
| 1778081408 | 11.67° C | 51% | 1009.4 hPa | 0 mm | - | 46 W/m² | - |
| 1778080806 | 12.22° C | 54% | 1009.4 hPa | 0 mm | - | 30 W/m² | - |
* Rain latest hour (hover to see other rain measurements)
** Current wind speed in m/s (hover to see current wind gust speed)